Weather History for Valentine, NE

Change the Weather History Date:

Tuesday, January 15, 2013

  Actual Average Record
Temperature  
Mean Temperature 14 °F 24 °F  
Max Temperature 33 °F 37 °F 65 °F (2000)
Min Temperature -6 °F 11 °F -20 °F (1963)
Degree Days  
Heating Degree Days 51 41  
Month to date heating degree days 635 628  
Since 1 July heating degree days 3311 3523  
Cooling Degree Days 0 0  
Month to date cooling degree days 0 0  
Year to date cooling degree days 0 0  
Moisture  
Dew Point 11 °F    
Average Humidity 74    
Maximum Humidity 92    
Minimum Humidity 55    
Precipitation  
Precipitation 0.04 in 0.01 in 0.19 in (1936)
Month to date precipitation 0.12 0.13  
Year to date precipitation 0.12 0.13  
Snow  
Snow 0.50 in 0.20 in 3.00 in (2003)
Month to date snowfall 2.8 2.0  
Since 1 July snowfall 16.1 14.7  
Snow Depth 2.00 in    
Sea Level Pressure  
Sea Level Pressure 30.11 in    
Wind  
Wind Speed 11 mph (WSW)    
Max Wind Speed 18 mph    
Max Gust Speed 23 mph    
Visibility 8 miles    
Events Snow    
T = Trace of Precipitation, MM = Missing Value Source: NWS Daily Summary

Daily Weather History Graph

Daily Weather History Graph

Search for Another Location

Airport:

Trip Planner

Search our weather history database for the weather conditions in past years. The results will help you decide how hot, cold, wet, or windy it might be!

Date:

Astronomy

Jan. 15, 2013 Rise Set
Actual Time 8:10 AM CST 5:33 PM CST
Civil Twilight 7:38 AM CST 6:05 PM CST
Nautical Twilight 7:03 AM CST 6:40 PM CST
Astronomical Twilight 6:29 AM CST 7:14 PM CST
Moon 10:09 AM CST (1/15) 10:33 PM CST (1/15)
Length of Visible Light 10h 26m
Length of Day
9h 23m
Waxing Crescent, 19% of the Moon is Illuminated
Jan 15
Waxing Crescent
Jan 18
First Quarter
Jan 26
Full
Feb 3
Last Quarter
Feb 10
New

Hourly Weather History & Observations

Time (CST) Temp. Windchill Dew Point Humidity Pressure Visibility Wind Dir Wind Speed Gust Speed Precip Events Conditions
12:52 AM -0.0 °F - -7.1 °F 72% 30.31 in 10.0 mi Calm Calm - N/A   Clear
1:52 AM -0.0 °F -14.2 °F -7.1 °F 72% 30.30 in 10.0 mi West 8.1 mph - N/A   Clear
2:52 AM -4.0 °F -16.3 °F -9.9 °F 76% 30.29 in 10.0 mi SW 5.8 mph - N/A   Clear
3:52 AM -4.0 °F -17.8 °F -9.4 °F 78% 30.11 in 10.0 mi SW 6.9 mph - N/A   Clear
4:52 AM -4.0 °F -16.3 °F -9.9 °F 76% 30.27 in 10.0 mi WSW 5.8 mph - N/A   Clear
5:52 AM -2.9 °F -19.8 °F -9.9 °F 72% 30.25 in 10.0 mi WSW 10.4 mph - N/A   Clear
6:52 AM -2.0 °F -19.6 °F -9.0 °F 72% 30.25 in 10.0 mi WSW 11.5 mph - N/A   Clear
7:52 AM -0.9 °F -20.6 °F -9.0 °F 69% 30.25 in 10.0 mi WSW 15.0 mph - N/A   Clear
8:52 AM -4.0 °F -20.2 °F -11.0 °F 72% 30.28 in 10.0 mi WSW 9.2 mph - N/A   Clear
9:52 AM 5.0 °F -10.8 °F -5.1 °F 63% 30.25 in 10.0 mi West 11.5 mph - N/A   Clear
10:52 AM 12.0 °F -2.0 °F -0.9 °F 56% 30.23 in 10.0 mi WSW 11.5 mph - N/A   Clear
11:52 AM 16.0 °F 3.6 °F 3.0 °F 57% 30.20 in 10.0 mi WSW 10.4 mph - N/A   Clear
12:52 PM 21.0 °F 9.3 °F 8.1 °F 57% 30.16 in 10.0 mi WSW 11.5 mph - N/A   Clear
1:52 PM 24.1 °F 12.0 °F 10.0 °F 55% 30.14 in 10.0 mi West 13.8 mph - N/A   Mostly Cloudy
2:52 PM 25.0 °F 14.2 °F 12.9 °F 60% 30.14 in 10.0 mi West 11.5 mph - N/A   Overcast
3:52 PM 27.0 °F 16.7 °F 15.1 °F 61% 30.13 in 10.0 mi West 11.5 mph - N/A   Overcast
4:52 PM 26.1 °F 19.4 °F 15.1 °F 63% 30.13 in 10.0 mi SW 5.8 mph - N/A   Overcast
5:52 PM 26.1 °F 16.8 °F 17.1 °F 69% 30.12 in 10.0 mi SW 9.2 mph - N/A   Overcast
6:52 PM 25.0 °F 16.3 °F 18.0 °F 75% 30.10 in 10.0 mi SW 8.1 mph - N/A   Overcast
7:52 PM 26.1 °F 16.2 °F 19.9 °F 78% 30.09 in 10.0 mi WSW 10.4 mph - N/A   Overcast
8:52 PM 28.9 °F 18.6 °F 25.0 °F 85% 30.07 in 4.0 mi West 12.7 mph - 0.00 in Snow Light Snow
9:04 PM 28.4 °F 19.1 °F 24.8 °F 86% 29.93 in 2.0 mi West 10.4 mph - 0.00 in Snow Light Snow
9:15 PM 28.4 °F 18.5 °F 26.6 °F 93% 29.93 in 4.0 mi West 11.5 mph - 0.01 in Snow Light Snow
9:24 PM 28.4 °F 18.5 °F 26.6 °F 93% 29.92 in 4.0 mi West 11.5 mph - 0.01 in Snow Light Snow
9:34 PM 30.2 °F 21.9 °F 26.6 °F 86% 29.92 in 7.0 mi West 9.2 mph - 0.01 in Snow Light Snow
9:52 PM 30.0 °F 21.1 °F 26.1 °F 85% 30.04 in 6.0 mi West 10.4 mph - 0.01 in Snow Light Snow
10:06 PM 28.4 °F 18.5 °F 26.6 °F 93% 29.91 in 2.0 mi West 11.5 mph - 0.00 in Snow Light Snow
10:17 PM 30.2 °F 19.3 °F 26.6 °F 86% 29.91 in 1.2 mi West 15.0 mph - 0.01 in Snow Light Snow
10:52 PM 30.9 °F 20.7 °F 28.9 °F 92% 30.01 in 2.5 mi West 13.8 mph - 0.02 in Snow Light Snow
11:03 PM 30.2 °F 19.8 °F 28.4 °F 93% 29.89 in 2.5 mi WSW 13.8 mph - 0.00 in Snow Light Snow
11:11 PM 30.2 °F 19.3 °F 28.4 °F 93% 29.89 in 5.0 mi WSW 15.0 mph - 0.00 in Snow Light Snow
11:52 PM 33.1 °F 22.2 °F 28.9 °F 85% 29.99 in 10.0 mi WSW 17.3 mph - 0.01 in   Overcast